Location: Artiguedieu
(43.5000°N, 0.5454°E)
Time: 14:28:52
(UTC+00:00)

HuskySat-1 - Pass Details

Date: 01 October 2021
Orbit: 445 x 458 km, 51.6° (Epoch: 27 October)

Event Time Altitude Azimuth Distance (km) Brightness Sun altitude
Rises 20:19:12 0° 279° (W) 2,465 ? -29.2°
Reaches altitude 10° 20:21:37 10° 294° (WNW) 1,597 ? -29.6°
Enters shadow 20:23:06 18° 314° (NW) 1,174 ? -29.8°
